Preview of NWS' New Version of Forecast
This preview is not operational and should not be used for support decisions.

Regional Weather Roundup (RWR)

Issued by National Weather Service (NWS)

                            
000
ASUS43 KLSX 180207
RWRMO 

WEATHER SUMMARY FOR MISSOURI
NATIONAL WEATHER SERVICE SPRINGFIELD MO
900 PM CDT WED APR 17 2019

NOTE: "FAIR" INDICATES FEW OR NO CLOUDS BELOW 12,000 FEET WITH NO
       SIGNIFICANT WEATHER AND/OR OBSTRUCTIONS TO VISIBILITY.
       CURRENT SKY AND/OR WEATHER CONDITIONS ARE NOT AVAILABLE FOR
       CHILLICOTHE AND FARMINGTON.

MOZ001>031-035>038-043-044-053-054-180300-
...NORTHERN AND WESTERN MISSOURI...
  
CITY           SKY/WX    TMP DP  RH WIND       PRES   REMARKS
KANSAS CTY INT CLOUDY    64  54  69 N12       29.65S                  
KANSAS C DTWN  CLOUDY    69  55  60 N10       29.62S                  
LEE'S SUMMIT   CLOUDY    72  62  71 SW12      29.63F                  
ST JOSEPH      CLOUDY    63  53  70 N15       29.68R                  
CHILLICOTHE      N/A     66  58  75 NW5       29.65R                  
KIRKSVILLE     CLOUDY    70  60  70 SW7       29.64S                  
     
$$
MOZ066>068-077>081-088>096-101>105-180300-
...SOUTHWEST MISSOURI...
  
CITY           SKY/WX    TMP DP  RH WIND       PRES   REMARKS
SPRINGFIELD    CLOUDY    69  62  78 S13       29.69F                  
JOPLIN         CLOUDY    68  65  90 S14       29.68F                  
BRANSON        TSTM      64  64 100 S10       29.75F                  
               
$$
MOZ032>034-039>042-045>050-055>058-069>072-180300-
...CENTRAL MISSOURI...  
  
CITY           SKY/WX    TMP DP  RH WIND       PRES   REMARKS
COLUMBIA       CLOUDY    71  59  65 S10       29.66F                  
JEFFERSON CITY CLEAR     74  59  59 S7        29.67F                  
ROLLA          CLOUDY    69  57  65 S14       29.75R                  
SEDALIA        PTCLDY    67  62  84 S13       29.66R                  
WHITEMAN AFB   MOCLDY    70  62  78 S13       29.60S                  
WARRENSBURG    CLOUDY    70  61  73 S9        29.64S                  
OSAGE BEACH    CLOUDY    72  61  68 S8        29.71S                  
               
$$
MOZ051-052-059>065-180300-
...EAST CENTRAL MISSOURI...
  
CITY           SKY/WX    TMP DP  RH WIND       PRES   REMARKS
ST LOUIS INTL  MOCLDY    71  56  58 SW13G23   29.72R                  
SPIRIT OF STL  MOCLDY    72  58  61 S8G20     29.70R                  
ST CHARLES     PTCLDY    71  58  63 S12       29.70R                  
                   
$$
MOZ072>076-082>087-097>100-106>115-180300-
...SOUTH CENTRAL AND SOUTHEAST MISSOURI...
  
CITY           SKY/WX    TMP DP  RH WIND       PRES   REMARKS
CAPE GIRARDEAU CLOUDY    70  60  70 S17G30    29.81S                  
FARMINGTON     CLOUDY    67  62  84 S12       29.77F                  
POPLAR BLUFF   CLOUDY    67  63  87 S6        29.82S                  
WEST PLAINS    CLOUDY    66  62  87 S9G20     29.80R                  
                                       
$$